Regional Weather Roundup
Issued by NWS State College, PA

Home | Current Version | Previous Version | Text Only | Print | Product List | Glossary On
Versions: 1 2 3 4 5 6 7 8 9 10 11 12 13 14 15 16 17 18 19 20 21 22 23 24 25 26 27 28 29 30 31 32 33 34 35 36 37 38 39 40 41 42 43 44 45 46 47 48 49 50
000
ASUS41 KCTP 201910
RWRCTP

REGIONAL WEATHER ROUNDUP
NATIONAL WEATHER SERVICE STATE COLLEGE PA
300 PM EDT WED AUG 20 2014

Note: "fair" indicates few or no clouds below 12,000 feet with no
significant weather and/or obstructions to visibility.

* = STATION THAT DOES NOT REPORT PRECIPITATION /E.G. RAIN...SNOW...ETC/
    THUNDER OR FOG.

PAZ002>004-007>009-013>016-020>023-029>032-202000-
WESTERN PENNSYLVANIA

CITY           SKY/WX    TMP DP  RH WIND       PRES   REMARKS
ERIE           CLOUDY    81  64  56 SW9       29.88F
MEADVILLE      PTSUNNY   76  65  68 SW8       29.94S
FRANKLIN*      MOSUNNY   77  64  65 W8        29.96S
NEW CASTLE     NOT AVBL
BEAVER COUNTY  PTSUNNY   79  68  69 SW9G17    29.95S
BUTLER*        CLOUDY    77  66  69 SW10      29.97S
PITTSBURGH INT PTSUNNY   78  65  63 SW8       29.95S
PITTSBURGH     MOSUNNY   80  64  58 SW9       29.95S
INDIANA*       MOSUNNY   77  66  69 W10G18    30.00S
LATROBE        PTSUNNY   79  70  73 SW10      29.96S
WASHINGTON CO* MOSUNNY   81  66  61 SW7       29.97S
$$

PAZ004>006-010>012-017>019-024>028-033>037-041-042-045-046-049>053-202000-
CENTRAL PENNSYLVANIA

CITY           SKY/WX    TMP DP  RH WIND       PRES   REMARKS
BRADFORD       CLOUDY    72  64  76 NW6       29.98F
DUBOIS         CLOUDY    74  64  71 W9        29.97S
CLEARFIELD     CLOUDY    77  67  71 SW6       29.97S
JOHNSTOWN      PTSUNNY   75  65  70 S8        30.00S
ALTOONA        PTSUNNY   76  68  76 S6        29.98S
STATE COLLEGE  PTSUNNY   73  68  83 S7        29.97S
WILLIAMSPORT   LGT RAIN  76  67  73 CALM      29.94S
SELINSGROVE    RAIN      74  72  93 CALM      29.96S FOG
FT INDIANTOWN  PTSUNNY   79  65  62 S8        29.97S
CAPITAL CITY   PTSUNNY   80  64  58 S6        29.95S
HARRISBURG     CLOUDY    81  67  62 SE5       29.95R
YORK           PTSUNNY   81  65  58 VRB6      29.96R
$$

PAZ038>040-043-044-047-048-054-055-060>062-067>071-202000-
EASTERN PENNSYLVANIA

CITY           SKY/WX    TMP DP  RH WIND       PRES   REMARKS
SCRANTON       PTSUNNY   81  64  56 VRB6      29.96F
MOUNT POCONO   CLOUDY    76  62  62 S9        30.03F
ALLENTOWN      CLOUDY    83  62  49 S6        29.96F
QUAKERTOWN*    MOCLDY    84  64  51 MISG      29.98S
READING        PTSUNNY   85  63  47 S5        29.95S
LANCASTER      SUNNY     80  63  55 S9        29.96S
COATESVILLE    PTCLDY    81  64  57 SE9       29.99S
POTTSTOWN      MOSUNNY   82  62  50 VRB6      29.98F
BLUE BELL      SUNNY     84  64  51 S6        29.96F
DOYLESTOWN     CLOUDY    81  63  54 VRB3      29.96F
WILLOW GROVE   NOT AVBL
NORTH PHILA    MOSUNNY   84  61  45 MISG      29.97F
PHILADELPHIA   MOSUNNY   84  63  49 S5        29.96F
$$



USA.gov is the U.S. government's official web portal to all federal, state and local government web resources and services.